Location: Ecklingerode
(51.5036°N, 10.3122°E)
Time: 14:09:10
(UTC+00:00)

CZ-4C R/B - Pass Details

Date: 29 October 2020
Orbit: 624 x 1378 km, 63.4° (Epoch: 28 November)

Event Time Altitude Azimuth Distance (km) Brightness Sun altitude
Rises 18:39:14 0° 313° (NW) 3,670 6.4 -25.7°
Reaches altitude 10° 18:41:40 10° 316° (NW) 2,825 5.6 -26.1°
Maximum altitude 18:48:27 65° 39° (NE) 1,275 2.9 -27.2°
Enters shadow 18:49:39 58° 81° (E) 1,375 2.9 -27.3°
